ONEWEB-0357 (49219 NORAD) Tracking and Keplerian Element Data

This shows tracking and keplerian element data for the satellite.

Feedback or suggestion? Click here.




ElementValue
Catalog49219
NameONEWEB-0357
Epoch Orbit780
Epoch Day300.83334491
Epoch Year2021
RAAN312.9586
Inclination87.2016
Eccentricity0.0022062
Argument of Perigee139.2484
Mean Anonmoly131.6116
Mean Motion14.89596355
Decay Rate0.00030686
L11 49219U 21083AK 21300.83334491 .00030686 00000-0 31881-2 0 9996
L22 49219 87.2016 312.9586 0022062 139.2484 131.6116 14.89596355 7807

Live tracking and technical data element details for ONEWEB-0357 (NORAD 49219). ONEWEB-0357 can be tracked NOW for your location showing map with azimuth and elevation plus other details from your city location.

Track the satellite on the map from your city or location and see movement details for azimuth, elevation, latitude, longitude, range, height, and movement on the map or in text.







IsCatalogInMostPopularTable: catalog: 49219, numindb: 10
Update: records affected: 1



GetName: 49219 ONEWEB-0357

Hit Count: updated at: Thu, 28 Oct 2021 11:19:39 GMT